Theta_e
334 335 335 335 334 333 333 333 334 335 335 335 336 337 337 337 338 339 339 338 337 337 338 338 339 340 340 339 338 338 337 336 340 347 349 347 345 346 346 347 349 349 349 348 349 350 350 348 347 346 345 343 341 339 338 337 336 335 335 335 336 336 337 337 337 338 340 342 342 343 343 343 344 344
334 334 334 333 332 332 333 333 333 333 333 333 334 335 336 336 337 338 338 338 337 336 337 337 337 338 338 339 340 341 340 338 340 348 350 347 346 346 346 347 347 347 347 347 348 350 350 349 347 345 345 345 344 342 341 340 339 338 338 337 337 338 338 338 338 338 340 342 343 344 344 344 345 345
333 333 332 332 332 331 332 332 332 332 332 332 332 332 334 335 336 336 337 338 337 336 337 337 337 337 337 337 339 341 343 343 344 348 348 346 345 345 346 347 347 346 346 346 347 349 349 347 343 341 342 343 344 344 343 343 342 342 341 340 339 339 339 339 339 339 340 343 344 344 345 344 344 344
333 331 332 331 331 331 331 331 331 331 330 330 330 331 332 333 334 335 336 337 336 335 336 337 337 337 337 336 337 338 340 344 346 347 346 344 343 343 343 344 345 346 345 346 347 348 348 346 342 339 341 342 343 344 344 344 344 343 342 341 340 340 340 340 339 339 341 344 344 344 344 344 344 344
332 331 331 331 331 331 330 330 330 329 328 328 329 329 330 330 331 332 334 335 335 335 335 337 337 337 337 338 337 336 337 343 348 347 344 342 342 342 342 343 345 345 346 346 347 347 348 347 345 341 342 343 345 344 344 344 344 344 343 341 339 340 340 340 340 341 342 344 344 344 343 343 344 344
331 331 331 330 331 330 329 329 328 326 325 326 326 327 327 329 329 330 331 332 333 334 335 336 337 338 338 338 338 337 337 341 347 348 345 343 343 342 342 343 344 345 346 346 346 347 348 348 348 345 343 343 344 345 345 345 344 344 342 340 339 339 340 340 340 342 343 343 343 344 344 344 344 344
331 330 330 330 330 329 328 328 325 324 324 324 325 325 326 328 328 328 329 330 331 333 334 335 336 337 338 339 339 338 337 338 343 347 346 343 342 342 342 342 343 345 348 347 346 346 347 348 349 347 345 343 344 345 345 344 344 342 341 339 338 339 339 340 342 342 343 343 344 344 344 345 344 344
330 330 329 329 329 328 327 326 324 323 323 323 323 324 326 326 327 327 327 328 329 331 334 335 335 336 338 339 339 339 338 338 341 346 346 342 341 341 342 343 345 346 347 347 346 346 348 349 349 347 346 346 346 346 344 343 342 340 339 338 338 339 341 342 343 343 343 344 344 345 345 344 344 344
330 329 329 329 328 328 327 325 324 324 324 324 324 324 325 325 325 325 326 326 327 329 332 335 336 336 338 339 340 340 340 340 341 345 346 343 341 341 341 343 346 346 345 346 347 347 348 350 350 348 347 347 348 346 344 342 341 340 340 340 341 342 343 343 343 343 344 344 344 345 345 344 345 345
330 329 329 328 328 328 327 325 325 326 325 325 324 323 324 325 325 325 325 325 326 327 330 333 335 336 337 339 339 340 340 341 342 344 346 345 344 342 341 343 345 345 344 344 346 347 350 352 351 350 348 349 349 347 344 343 342 342 342 342 343 343 343 343 344 344 344 345 345 345 344 345 345 345
329 329 328 328 328 328 325 323 324 324 324 324 324 323 324 324 324 325 324 325 325 326 328 331 334 336 336 338 339 339 340 341 341 343 345 346 347 345 344 343 344 343 343 344 346 348 351 351 350 350 349 349 348 346 344 344 343 343 342 342 342 343 343 344 344 345 345 344 344 344 344 344 344 344
329 328 328 328 328 327 324 319 320 322 323 324 324 324 324 324 324 324 324 324 325 325 327 330 333 335 336 337 338 339 339 339 341 342 342 345 348 348 346 345 345 344 345 347 349 350 351 351 351 351 350 349 348 346 345 345 343 343 343 343 344 344 344 344 344 344 343 343 343 343 344 343 343 343
329 329 328 328 328 328 325 319 319 321 323 325 325 325 324 324 324 324 324 324 325 325 327 329 331 334 336 336 337 339 340 339 340 341 341 343 346 347 347 347 346 346 348 349 350 350 350 350 351 351 350 348 347 346 345 344 344 344 344 344 345 345 344 344 343 343 342 342 343 343 343 343 343 343
329 328 328 328 328 329 328 324 322 322 323 325 326 326 325 325 324 323 323 324 325 325 326 327 330 333 335 336 337 338 339 340 340 341 341 342 343 345 346 347 347 347 349 350 350 350 349 349 350 350 349 347 346 345 345 345 344 345 345 344 345 344 344 343 342 342 342 343 343 343 343 344 343 343
328 328 328 328 328 328 329 328 325 323 324 327 328 326 323 322 322 323 323 324 324 325 325 326 327 330 332 334 336 337 339 340 340 340 340 341 342 344 345 347 347 346 348 350 351 350 349 349 351 351 349 347 346 345 345 345 344 344 344 344 344 344 343 343 343 344 343 343 343 343 343 343 344 343
328 328 328 329 328 328 330 329 326 325 327 329 328 324 320 319 320 322 323 323 323 324 325 325 326 328 329 330 333 335 337 339 340 340 340 341 343 344 344 346 347 346 347 350 351 350 349 349 351 352 351 349 348 346 346 345 345 345 344 343 343 343 343 344 345 343 342 342 342 342 342 342 343 343
328 328 329 330 329 329 329 329 328 329 329 329 326 322 319 319 320 321 321 322 323 323 324 325 326 327 328 329 331 333 336 338 339 340 341 341 343 344 343 344 346 346 346 349 351 351 350 350 351 352 352 352 351 350 349 347 346 346 345 343 342 342 344 345 344 342 343 343 342 341 341 341 342 342
328 328 329 329 329 328 328 328 328 330 330 328 325 321 319 319 320 320 321 322 323 323 324 324 325 326 327 329 330 331 333 336 338 339 341 342 342 342 343 344 345 345 346 349 351 350 350 351 351 351 351 352 354 353 352 350 348 346 345 344 343 343 345 345 344 343 344 343 340 338 338 339 341 342
328 328 328 328 327 327 327 327 328 330 330 329 326 321 318 319 319 320 322 323 323 323 323 324 324 325 325 326 328 330 332 335 337 339 340 341 341 341 342 344 344 344 345 347 349 349 349 350 351 351 350 351 353 354 353 353 351 349 346 344 344 344 345 344 344 344 344 342 339 337 336 339 342 343
329 327 327 327 327 327 327 327 328 330 330 329 326 322 319 319 320 321 322 323 323 323 323 323 324 324 324 324 325 327 330 333 335 337 339 339 339 340 341 342 343 344 345 345 346 347 348 350 350 350 350 350 352 353 354 354 354 353 350 347 344 344 345 346 346 346 345 343 340 338 338 341 344 346
328 326 325 326 327 327 327 327 328 330 330 329 326 322 319 319 320 321 322 323 323 323 324 324 324 324 325 325 324 324 326 328 331 334 338 339 339 341 341 341 342 344 344 344 345 345 346 350 351 350 350 350 351 351 353 354 354 354 352 349 348 348 349 350 350 349 347 345 342 340 341 344 347 347
328 326 326 326 326 326 326 327 330 331 329 327 323 320 320 321 322 322 322 323 323 323 324 325 325 327 327 327 326 324 324 326 327 330 335 340 340 340 341 341 343 344 344 344 346 345 346 348 349 349 350 350 350 350 352 354 354 352 351 350 350 351 352 352 352 349 346 344 342 342 344 347 348 347
328 327 326 325 325 326 328 329 330 328 326 324 322 321 321 322 323 323 322 323 323 324 325 325 325 328 330 329 327 326 325 325 326 328 332 338 340 340 340 341 343 345 344 344 346 347 347 347 347 348 348 349 350 351 351 353 352 350 350 350 350 352 352 351 350 347 345 343 343 345 347 348 347 346
330 328 325 325 325 327 329 328 327 324 322 322 322 322 322 323 324 323 323 323 323 324 324 325 326 329 330 329 328 327 326 325 326 328 332 337 340 340 340 341 343 344 343 343 345 347 348 347 347 347 347 347 350 351 351 350 350 349 349 349 350 351 351 350 348 346 344 344 345 347 347 346 345 346
329 327 326 325 326 327 327 325 323 321 321 322 323 322 323 323 323 323 323 322 323 323 324 324 325 327 329 330 330 330 327 326 327 330 333 337 339 339 339 341 342 343 343 343 344 346 347 346 346 348 347 346 348 350 350 349 348 347 347 348 349 351 351 349 347 345 344 344 345 346 345 343 345 347
328 327 327 326 326 326 325 323 321 321 322 323 323 322 322 323 323 323 322 321 321 323 323 324 324 325 326 329 332 332 330 330 332 333 335 337 338 338 339 340 341 342 343 342 342 344 346 346 346 347 348 346 346 348 349 348 347 346 346 347 348 350 350 348 346 344 343 343 344 343 342 343 345 347
327 326 326 326 324 323 324 323 323 324 325 324 322 321 322 322 322 323 322 321 321 322 323 323 324 324 324 326 330 333 334 334 335 337 337 337 338 338 338 339 340 341 341 341 342 343 345 346 346 345 347 347 347 347 348 347 346 346 347 347 347 348 348 346 345 343 342 342 342 341 342 343 344 347
326 326 326 324 321 321 324 325 325 326 326 323 320 320 321 321 322 322 321 320 320 321 322 322 323 324 324 325 326 331 336 337 337 337 338 337 337 337 337 337 338 339 340 340 341 341 342 345 345 344 345 347 349 348 348 346 346 346 348 348 347 347 346 345 343 342 341 341 341 341 342 342 344 346
326 326 324 321 321 324 326 326 327 327 324 320 319 319 320 320 320 319 318 318 319 320 321 322 323 324 324 325 325 327 333 338 338 338 338 337 338 337 337 337 337 338 339 339 340 340 342 344 344 343 344 346 347 347 346 345 345 345 346 347 346 346 346 344 343 342 341 340 340 340 341 342 342 344
324 323 322 323 324 326 326 325 325 324 321 319 317 317 317 318 317 316 316 317 318 319 319 320 322 323 324 325 324 324 327 331 335 338 338 337 337 338 338 338 338 338 337 338 340 342 344 344 343 343 344 345 346 345 344 344 345 345 345 346 346 346 345 344 343 343 342 340 340 340 340 340 341 342
322 322 324 325 324 324 324 322 321 321 319 318 317 316 315 315 314 315 316 316 317 318 319 320 321 322 323 324 323 322 322 323 327 333 338 339 338 338 338 338 339 339 339 340 342 343 343 343 343 343 344 345 346 346 344 343 344 345 345 345 345 345 345 345 344 343 342 341 340 339 339 339 339 340
322 324 326 324 321 321 321 319 319 318 318 318 317 316 314 314 314 314 315 316 317 317 318 319 320 321 323 324 323 323 322 321 321 325 331 336 338 339 339 339 340 341 341 341 341 342 341 340 340 342 343 342 344 346 345 343 344 345 344 344 344 344 345 345 345 343 342 341 340 339 339 339 338 338
323 324 324 321 319 318 318 317 317 316 316 316 316 315 314 313 313 313 314 314 316 317 317 318 319 320 321 323 323 323 322 322 321 321 323 327 332 335 336 336 336 338 341 341 341 340 339 338 341 343 343 343 343 345 345 344 344 343 344 344 344 343 344 345 344 343 341 340 340 339 338 339 339 338
322 321 320 319 317 317 316 316 315 315 315 315 314 314 314 313 312 312 312 313 315 317 317 318 318 320 320 322 323 324 323 322 322 322 321 322 324 325 326 327 327 330 334 336 338 339 340 341 341 342 342 342 341 341 342 343 344 343 344 344 343 343 344 345 344 343 341 340 340 340 339 338 338 338
320 319 318 317 316 315 315 314 314 313 313 313 313 313 313 313 312 311 310 311 313 316 317 317 317 318 319 320 322 324 324 323 322 322 322 322 322 322 322 322 323 323 326 328 330 335 340 341 339 338 338 338 337 337 338 340 342 343 344 343 342 343 344 344 343 342 342 340 340 340 339 339 338 337
318 316 316 314 314 313 313 313 312 312 312 312 311 311 312 312 311 309 309 310 312 314 315 315 316 317 317 318 320 322 324 324 323 322 322 322 322 322 322 322 321 321 322 323 325 329 334 337 338 338 338 338 339 338 336 334 336 341 343 343 344 344 344 343 343 342 341 340 340 340 340 339 339 338
314 313 313 311 311 311 310 310 310 310 310 310 310 310 310 310 309 308 308 309 310 311 313 313 314 316 316 316 318 320 322 323 323 323 323 322 322 322 322 322 322 321 321 321 321 324 327 329 332 335 338 339 340 338 333 331 332 336 340 342 343 343 343 342 342 341 341 340 341 341 340 340 340 339
311 310 309 308 308 307 307 307 307 307 307 307 307 308 308 308 307 306 307 307 308 310 311 311 312 314 315 315 316 318 319 320 322 323 324 324 323 322 322 322 322 322 321 320 320 321 323 324 325 328 331 334 335 333 331 329 328 329 334 338 340 341 341 341 341 341 340 340 340 340 340 340 340 340
308 307 306 306 305 305 305 305 305 305 305 305 305 305 306 306 306 306 306 306 307 308 309 309 310 312 314 314 315 316 317 319 320 321 323 324 324 324 324 323 322 322 321 321 320 320 321 322 324 325 326 328 330 329 329 328 326 325 329 334 337 339 340 341 340 340 340 340 339 338 339 340 340 340
307 306 306 305 305 305 304 304 304 304 304 303 303 304 304 305 305 305 305 305 305 306 307 308 309 310 312 313 314 315 316 317 318 319 320 322 324 325 325 324 322 321 321 322 322 321 322 323 323 323 324 325 327 327 327 327 325 324 324 327 331 334 337 339 340 339 339 339 339 337 337 337 338 338
307 306 306 306 306 305 305 305 305 304 304 303 303 303 302 303 303 303 303 303 304 305 306 306 307 309 310 311 312 313 315 316 316 317 318 320 322 324 325 325 324 322 322 322 323 322 322 322 321 320 321 322 323 324 325 326 326 325 323 322 324 327 331 334 335 336 336 337 337 337 337 336 336 336
307 306 305 305 305 304 305 305 305 304 304 303 303 302 301 301 302 302 301 302 302 303 304 305 306 307 309 310 311 312 313 314 315 316 317 318 319 321 323 323 324 324 323 323 323 322 320 319 318 318 319 320 321 323 325 325 325 326 324 321 320 321 324 326 328 330 331 332 332 333 335 336 336 336
306 305 304 303 303 303 303 303 303 303 302 302 302 301 301 300 300 300 301 301 301 302 303 304 304 305 307 308 309 310 312 313 313 314 315 316 317 319 319 319 321 323 324 324 324 323 321 319 319 319 320 321 321 323 324 324 324 324 325 323 321 320 320 321 322 324 325 325 325 326 328 331 334 334
305 305 304 303 303 302 302 302 302 301 301 301 300 300 300 299 299 299 300 300 300 301 302 302 303 304 305 307 307 308 310 311 312 313 313 313 314 316 317 316 317 319 321 323 324 325 323 322 321 321 321 321 321 322 323 323 323 324 324 323 322 321 321 320 320 320 320 321 321 321 323 325 326 327
304 304 304 303 303 302 301 301 301 301 301 300 299 299 299 298 298 298 299 300 300 300 301 302 303 304 304 305 306 307 308 310 311 311 312 311 312 313 314 313 313 315 317 320 322 324 324 323 323 323 323 323 323 322 322 322 322 324 324 323 322 321 321 321 320 320 319 319 319 319 319 320 321 321
Wind_Speed
13 13 14 15 18 20 20 21 20 20 22 22 22 22 20 16 10 7 8 8 10 18 21 20 22 23 23 23 22 23 25 25 28 31 33 37 39 37 37 37 36 37 38 39 42 42 40 40 41 41 42 42 41 40 40 39 39 38 38 37 36 35 34 33 32 32 32 32 32 32 31 31 31 30
12 12 13 15 18 20 20 20 20 20 21 22 22 23 22 21 16 11 10 11 14 19 21 22 24 24 23 21 21 23 24 25 28 31 33 34 36 37 37 37 37 38 37 37 41 43 42 41 41 41 42 42 42 41 41 40 40 39 39 38 38 37 36 35 34 34 33 33 33 33 33 32 32 31
11 12 13 14 16 18 19 20 21 21 22 22 23 24 23 22 20 19 15 12 18 23 22 23 26 25 25 24 23 24 25 26 28 31 34 33 34 36 38 37 37 37 37 37 39 42 44 43 41 41 42 43 43 43 42 41 41 40 40 40 39 39 38 37 36 35 35 34 34 34 33 33 32 32
10 11 12 13 14 15 17 19 20 21 22 23 23 23 24 23 22 23 19 12 18 28 28 28 30 28 27 28 27 26 26 27 28 31 33 34 34 36 37 38 38 37 37 37 37 40 43 44 41 40 41 42 43 43 42 41 41 41 41 41 40 40 39 38 38 37 36 35 35 34 34 33 33 32
9 10 11 12 13 13 14 16 18 19 21 23 22 22 23 24 23 22 20 15 16 25 29 28 30 29 28 29 28 27 28 28 29 31 34 35 36 36 37 38 39 39 39 38 38 38 41 44 43 40 40 41 41 42 42 41 41 41 41 41 41 40 40 39 38 38 37 36 35 34 33 33 32 32
9 9 10 11 12 12 12 14 16 18 20 20 21 23 23 23 23 22 22 20 18 21 26 27 28 28 27 28 30 29 29 29 29 32 34 35 36 36 36 37 39 39 40 41 42 40 40 43 44 41 40 41 40 41 40 40 40 40 41 41 41 41 40 39 38 38 37 36 35 34 33 32 32 31
9 9 10 10 11 11 11 13 15 17 18 19 20 22 22 22 24 24 23 23 21 23 26 27 27 27 26 27 29 30 31 31 30 32 34 35 35 34 34 36 38 37 36 38 41 41 39 41 43 42 41 40 40 40 40 39 38 39 40 41 41 41 40 39 38 38 37 35 34 33 33 32 31 30
10 10 10 10 10 10 11 13 15 16 17 19 20 21 22 23 25 26 25 25 25 25 26 27 27 26 25 26 27 28 29 30 31 31 32 33 33 33 31 32 34 34 32 32 36 38 37 38 43 44 41 40 39 39 39 37 37 37 39 40 40 40 39 39 38 37 36 35 34 33 32 31 30 29
11 11 12 11 10 9 11 13 15 15 17 19 19 20 22 24 25 26 27 27 27 27 27 28 28 26 24 24 26 26 26 27 29 30 31 32 33 33 32 31 32 31 30 29 31 34 35 37 41 43 42 40 39 39 38 37 37 37 38 39 39 39 39 38 37 36 35 34 33 32 31 30 29 29
13 13 13 12 10 9 11 13 15 15 16 18 20 21 23 25 27 28 29 29 27 27 28 29 27 24 24 24 25 25 25 26 26 26 27 30 32 33 33 33 32 31 30 30 30 31 32 36 39 41 41 40 39 38 38 38 38 38 38 38 38 38 37 37 36 35 33 33 32 31 30 30 29 28
15 15 14 13 12 10 11 13 15 16 17 18 20 23 25 26 27 29 30 29 27 26 27 27 25 23 24 25 26 26 25 25 25 24 21 23 27 30 32 33 32 30 30 31 31 31 31 33 37 38 39 39 39 38 38 38 37 37 37 37 36 36 36 35 34 33 32 32 31 31 30 29 29 28
17 16 16 15 14 14 13 14 16 17 18 18 21 24 26 28 28 29 30 28 26 25 24 24 24 23 23 23 25 26 24 22 24 25 21 20 23 28 29 30 30 29 30 31 31 31 32 33 34 35 36 37 37 37 37 37 36 35 34 34 34 34 34 33 32 32 31 31 31 31 31 30 29 28
19 18 17 17 16 17 17 18 18 18 18 18 21 25 28 30 29 30 29 26 24 23 21 21 23 21 19 20 22 23 23 22 23 25 23 21 22 26 27 29 30 29 29 29 29 30 33 34 33 34 36 37 37 37 36 36 35 35 34 33 33 33 33 32 31 31 31 31 31 31 31 31 30 29
20 18 18 19 18 19 21 21 20 21 21 21 22 25 28 30 31 32 31 27 23 21 19 20 20 17 16 19 21 23 24 24 25 25 23 22 22 22 21 23 29 33 31 28 28 31 32 32 31 32 35 36 37 36 36 37 36 35 34 33 33 32 32 32 31 31 31 31 32 32 31 31 31 31
20 19 18 19 19 19 20 20 22 24 23 22 22 26 29 31 32 32 33 31 27 23 20 21 21 18 18 21 23 24 26 25 26 26 25 24 22 19 15 13 19 30 33 29 27 31 33 32 30 30 33 36 37 38 38 36 36 35 34 33 33 32 32 31 31 31 31 31 31 32 32 32 32 32
20 20 19 19 20 19 19 20 23 24 22 21 23 26 30 33 33 30 30 32 31 27 23 22 22 21 22 24 25 25 27 25 25 27 27 26 24 21 17 15 16 24 32 31 26 27 31 32 30 30 32 35 36 38 39 37 35 35 34 33 32 32 32 32 31 31 31 31 31 32 32 32 32 32
20 21 21 21 21 20 20 22 24 23 21 22 25 28 31 32 33 33 32 30 29 28 26 24 24 25 25 26 26 26 26 25 24 25 25 26 25 21 21 22 22 24 29 31 26 23 27 31 31 31 33 34 35 36 38 37 36 36 35 35 33 33 32 32 32 31 31 31 32 32 33 33 32 31
21 20 18 20 23 23 23 23 24 23 23 24 26 29 31 33 35 37 35 30 27 27 27 26 28 29 29 29 30 29 29 28 26 25 24 25 27 27 27 30 29 24 26 30 24 19 24 30 30 31 34 33 33 34 35 36 36 36 36 36 35 34 34 33 33 32 32 32 31 31 31 31 31 31
19 17 17 21 24 25 24 24 25 25 24 24 26 29 31 34 39 40 35 30 29 31 30 31 32 33 33 34 34 31 29 30 30 29 27 25 27 29 27 27 28 25 25 28 23 15 22 29 28 30 34 32 31 32 33 33 35 35 35 36 36 35 35 34 34 33 33 32 31 30 29 29 29 28
19 20 21 21 22 22 23 23 24 24 23 23 25 28 31 35 40 42 37 32 33 37 38 38 39 39 39 40 40 37 33 30 30 30 29 25 23 21 17 17 23 24 23 27 26 19 20 27 28 29 31 31 30 31 31 32 33 34 34 34 35 35 34 33 33 33 32 32 30 29 27 27 26 26
22 24 22 20 19 19 20 21 21 21 22 23 25 26 30 35 40 43 41 39 41 43 43 43 43 43 43 44 46 46 43 38 33 29 26 25 22 16 11 11 17 21 22 25 30 25 20 23 27 26 26 29 30 30 30 32 33 34 35 35 34 33 32 31 31 32 32 31 29 28 26 24 24 24
23 23 21 18 16 16 18 19 19 20 22 24 23 24 28 33 37 40 43 47 50 49 46 46 44 39 37 39 43 47 47 45 41 34 27 24 22 16 13 12 14 17 20 25 29 25 20 22 25 22 20 23 28 30 29 30 32 33 34 35 34 33 32 31 31 31 30 29 27 26 24 23 22 22
21 19 17 16 15 15 17 18 19 21 22 21 20 22 26 28 32 38 46 50 49 47 46 48 45 36 29 31 36 41 44 44 45 42 33 27 24 20 18 17 13 9 13 23 28 24 19 21 24 21 14 11 17 27 30 29 31 33 33 33 33 32 30 30 29 28 27 26 25 23 23 22 21 21
19 18 16 16 15 16 18 20 22 22 20 18 18 21 24 26 31 41 48 49 45 44 45 45 42 33 23 23 29 33 38 41 45 45 38 31 27 23 20 19 15 10 11 20 27 26 21 20 22 23 19 10 8 17 27 30 31 31 32 32 32 31 30 29 28 26 24 22 22 22 22 22 21 21
18 17 16 17 17 17 20 23 22 19 17 16 18 21 24 28 33 40 45 45 43 43 43 41 38 32 23 16 22 27 29 34 40 43 39 33 30 26 23 21 18 16 16 19 25 27 23 21 21 22 22 18 11 11 17 24 28 29 30 30 30 31 31 30 27 25 22 21 22 23 22 21 21 21
16 16 17 17 17 19 22 22 18 16 16 18 21 23 26 29 32 36 40 41 41 41 41 39 35 33 33 25 13 21 25 26 31 36 35 33 31 29 26 24 20 19 19 20 24 26 23 21 22 20 18 18 15 13 13 13 18 23 24 25 28 30 30 29 26 24 22 22 22 22 21 21 21 22
17 16 16 17 18 19 20 18 16 15 16 20 24 25 26 27 30 33 36 39 40 40 39 38 35 34 37 36 22 8 20 24 26 29 31 31 32 30 28 27 24 22 21 20 22 26 25 23 24 23 21 19 14 11 11 10 13 18 20 21 24 26 25 25 25 23 22 22 22 21 21 22 22 23
17 15 16 18 18 17 16 16 15 14 15 20 24 23 24 25 27 30 33 35 37 38 37 36 35 36 36 36 33 21 6 20 25 26 28 28 30 30 30 30 28 24 22 21 20 23 24 23 22 21 21 20 14 9 9 9 13 19 22 19 19 21 20 19 20 21 22 23 23 23 23 24 24 24
14 14 17 18 17 15 14 15 14 13 15 20 22 23 24 25 25 28 31 32 32 33 35 35 34 37 39 36 35 31 15 6 18 23 25 25 27 28 28 30 31 28 26 22 20 20 21 22 20 16 14 15 16 13 11 11 14 19 21 18 17 19 20 18 18 21 22 22 24 25 25 26 26 26
13 14 16 16 14 12 11 11 11 11 16 21 23 25 26 26 26 27 28 28 28 30 33 35 35 38 40 38 37 39 32 18 5 14 21 22 23 26 26 25 28 30 29 24 19 17 18 17 17 17 15 14 14 14 14 16 15 17 20 21 18 16 18 20 22 23 23 22 22 23 23 25 25 26
14 14 13 12 11 9 9 10 10 11 15 19 22 25 27 27 26 26 26 26 28 30 32 33 35 37 38 38 40 41 38 34 25 7 14 19 20 23 23 21 21 23 25 23 18 15 16 15 14 16 17 14 12 11 13 16 16 16 20 25 22 17 19 24 25 25 25 23 20 19 19 20 21 23
13 11 10 9 10 10 10 11 12 12 14 17 19 22 26 27 27 27 28 29 29 31 32 31 34 37 37 36 38 36 34 37 37 26 9 5 13 18 19 17 16 17 20 21 19 18 18 16 14 14 17 17 15 13 13 17 20 20 22 26 26 22 23 25 25 25 25 22 19 18 18 20 21 21
11 10 9 9 11 11 11 11 12 13 14 16 18 20 23 27 28 28 29 29 29 30 31 31 32 34 34 32 33 32 32 35 37 37 31 20 9 2 5 4 1 6 14 18 19 21 21 19 15 15 17 17 15 15 16 18 21 23 25 28 26 22 24 26 26 26 26 23 20 19 19 21 22 20
9 9 9 9 10 10 10 11 12 13 15 16 18 20 21 24 27 28 28 29 28 28 30 30 31 31 31 31 31 29 30 33 33 34 35 31 28 23 15 14 17 11 1 6 8 12 18 18 14 12 13 12 10 9 12 17 21 23 24 27 25 23 25 27 26 27 27 24 21 20 19 19 19 17
9 10 9 9 10 9 9 11 12 13 14 15 17 19 20 22 25 27 28 29 28 27 28 29 31 31 30 31 31 29 29 30 30 30 31 30 29 27 23 21 21 19 15 15 13 5 11 17 17 16 12 11 9 6 4 7 14 19 21 23 24 25 27 27 26 28 28 25 22 20 18 18 18 16
9 10 9 9 10 10 10 11 12 13 14 14 15 17 18 20 23 26 27 27 26 25 26 27 28 30 31 30 31 31 29 27 27 27 29 29 26 25 24 24 24 23 23 24 22 17 8 8 15 15 10 6 5 4 4 7 5 10 17 20 21 23 25 23 23 26 27 25 23 21 18 17 18 19
10 11 10 10 11 11 11 12 12 13 14 14 15 17 17 18 21 23 24 25 26 26 26 26 26 28 30 31 31 30 30 28 27 26 26 27 26 24 23 23 24 25 26 26 26 26 23 16 9 6 5 5 5 4 3 8 11 6 8 16 19 21 22 21 21 24 25 24 22 21 19 18 19 21
11 11 11 11 12 12 12 12 12 13 14 14 15 16 17 18 20 22 23 25 27 26 26 28 28 27 27 29 29 28 29 29 28 26 26 25 23 22 22 22 22 23 24 26 27 29 29 27 23 17 7 3 4 3 3 5 12 15 6 8 17 21 23 24 22 22 23 21 19 17 17 18 21 22
12 12 11 11 12 12 12 13 12 12 13 15 15 16 17 18 19 21 23 24 25 25 25 27 28 27 26 27 28 27 27 28 27 26 26 25 22 20 20 21 21 21 22 24 26 28 29 28 26 22 17 10 7 9 11 11 14 21 19 9 6 12 20 26 26 23 21 19 17 15 17 19 21 20
11 11 10 10 11 11 12 12 12 11 13 14 15 16 17 17 18 19 21 22 23 23 23 24 27 27 26 27 28 27 26 26 26 26 26 26 24 22 20 20 20 21 21 21 22 24 26 26 24 21 17 13 13 17 21 19 18 24 27 24 17 8 5 18 26 25 22 22 23 22 20 19 19 19
9 9 9 9 9 10 11 11 11 11 12 14 15 17 17 17 18 18 18 20 21 21 22 23 25 26 26 26 26 26 25 25 27 27 26 26 25 24 23 21 19 19 18 17 19 21 21 20 20 18 16 17 19 20 18 15 13 18 24 27 26 21 14 10 14 14 12 17 25 26 22 20 20 19
7 7 8 9 9 9 10 11 12 12 13 13 14 16 17 16 17 18 18 19 20 20 21 23 24 24 24 25 25 25 24 24 25 26 26 26 25 24 24 22 18 17 16 14 14 16 17 17 18 19 19 20 22 18 11 7 9 13 17 22 25 26 24 22 19 16 13 11 12 14 15 17 16 14
7 7 8 8 9 9 10 11 12 13 14 13 13 15 16 16 17 18 18 19 20 19 19 21 24 24 24 24 24 23 23 23 24 24 25 25 24 23 23 23 21 18 17 15 13 13 15 16 17 18 19 20 20 16 11 10 13 14 15 17 20 23 25 26 26 25 24 24 23 20 15 13 11 9
7 7 7 7 8 9 10 11 12 13 14 14 13 14 15 15 16 16 16 18 19 19 19 20 22 23 24 23 23 23 22 22 22 22 22 23 23 22 22 24 24 22 20 18 15 13 14 13 13 15 16 16 16 15 13 13 14 14 14 16 17 19 20 21 24 27 29 29 28 27 25 24 22 19
7 6 6 6 7 9 10 11 12 12 13 13 14 14 14 14 15 15 15 16 18 18 19 19 21 22 23 22 22 23 22 20 20 20 21 21 22 21 21 23 24 23 22 20 18 15 14 12 11 12 12 12 11 12 12 12 13 14 15 16 17 17 16 16 19 24 26 26 25 23 23 24 25 24
Wind_Direction
324 325 328 329 326 326 326 323 322 319 315 313 308 299 289 279 271 276 281 272 269 268 264 265 269 268 264 261 262 263 262 262 257 251 248 246 246 245 243 243 242 240 240 242 244 244 243 244 245 244 244 243 241 240 240 240 240 241 241 241 242 243 244 244 244 245 246 247 248 250 251 253 254 256
322 324 325 326 325 326 326 324 322 320 318 316 312 307 299 286 271 269 279 275 270 271 267 263 265 267 265 261 260 259 259 263 257 248 247 249 246 245 245 245 245 244 242 242 243 244 244 245 246 246 245 244 243 242 241 240 241 242 242 243 244 244 245 246 246 246 246 247 249 250 252 253 255 257
319 323 324 325 326 326 325 323 322 321 321 320 315 312 307 298 284 275 273 274 274 272 268 266 265 264 263 263 261 258 256 258 254 245 246 250 249 247 247 246 246 247 246 243 241 242 245 247 246 246 246 246 245 244 243 242 242 242 243 244 244 245 246 247 247 247 247 248 249 251 252 254 256 258
319 323 325 326 326 326 323 322 324 324 324 322 317 314 309 306 300 288 276 272 277 275 270 268 267 265 263 263 259 256 258 257 251 247 249 252 250 248 247 248 247 246 247 244 239 238 242 245 245 245 246 247 247 246 244 243 243 242 243 243 244 245 246 247 247 247 247 248 249 251 253 255 257 259
320 321 322 324 324 324 323 321 323 325 325 322 317 316 312 306 305 300 289 283 283 282 276 269 267 266 263 261 257 254 256 255 250 248 251 253 250 246 246 246 246 246 245 242 239 237 239 243 245 245 245 246 247 246 245 243 242 241 241 241 243 244 245 246 246 246 247 248 249 251 253 255 257 259
316 316 317 320 320 320 320 319 324 326 325 323 318 316 315 310 308 309 303 295 290 287 282 272 268 268 262 256 254 252 252 253 250 248 250 251 249 246 245 245 246 247 245 242 240 240 239 241 243 245 245 245 245 245 244 242 240 239 238 239 241 243 244 245 245 245 246 248 250 252 253 255 257 258
307 311 311 312 314 318 319 316 323 328 324 324 324 319 317 314 313 314 311 305 297 288 281 273 267 266 259 252 253 252 252 252 250 247 248 249 247 244 243 245 246 245 243 242 240 238 238 239 242 245 246 244 244 245 243 241 239 237 237 237 239 241 243 244 243 244 246 249 251 252 254 256 257 258
300 302 302 304 306 310 316 316 320 325 324 324 326 323 319 317 317 316 314 311 306 297 286 275 268 264 257 252 253 254 252 252 249 245 244 244 243 243 244 245 244 240 239 240 238 235 236 240 243 246 245 243 243 244 242 240 238 236 236 237 238 240 241 241 242 244 247 249 251 253 254 255 255 256
295 295 294 295 297 299 307 312 313 316 319 323 327 326 321 318 318 317 315 313 311 305 294 282 273 265 259 255 254 251 248 249 249 244 240 241 242 242 243 243 240 236 237 240 239 236 237 241 244 244 243 242 243 243 241 240 238 237 236 236 237 238 239 240 242 244 247 249 251 252 253 253 254 255
291 290 288 287 286 288 297 304 307 310 313 318 324 325 322 319 318 317 316 314 312 308 300 290 278 267 261 257 255 251 246 244 247 244 239 239 240 238 237 236 234 234 237 241 241 238 236 238 241 241 240 241 241 241 239 238 238 237 237 237 237 237 238 239 241 244 246 248 249 250 251 251 253 254
287 286 283 281 278 277 289 300 302 306 311 314 319 323 322 319 317 317 315 313 310 308 303 294 282 270 263 257 253 252 248 245 249 247 238 234 234 233 231 229 228 230 234 238 240 239 237 237 239 240 239 239 239 239 238 237 238 238 237 237 237 237 237 239 240 242 244 246 248 248 249 250 251 253
285 282 278 275 271 268 283 301 304 307 312 312 315 319 320 317 315 315 313 309 307 306 301 295 287 274 264 257 252 251 247 243 246 244 238 232 228 226 226 226 226 226 228 232 235 237 237 237 239 241 240 238 237 236 236 237 237 236 235 234 234 235 235 237 239 241 243 245 246 247 248 250 251 252
283 280 275 273 271 267 277 297 307 311 316 315 314 316 317 315 313 313 311 306 303 302 299 297 293 281 266 256 250 246 242 238 240 241 237 235 230 225 225 225 224 224 224 227 229 231 232 232 234 238 238 235 233 232 233 234 234 233 232 231 232 233 234 236 238 240 243 245 246 248 249 250 251 252
284 281 277 275 275 272 278 292 303 310 315 318 317 317 316 313 310 309 306 300 297 298 297 297 296 289 276 264 251 245 242 239 238 237 234 235 234 227 224 225 224 223 221 222 225 226 226 227 230 235 236 232 228 228 229 231 231 230 229 229 231 233 235 237 239 240 243 245 247 249 250 251 252 252
288 287 283 280 281 277 278 288 301 309 312 315 317 318 318 318 315 309 303 296 291 290 290 291 290 287 284 279 266 253 247 241 236 233 231 232 232 224 219 221 223 222 219 218 224 225 223 223 225 230 232 229 226 226 228 229 229 230 230 231 232 233 235 237 239 241 243 246 248 250 252 252 252 252
294 295 292 286 284 281 280 289 301 307 308 310 313 316 320 324 323 317 309 300 291 287 285 284 282 280 280 282 276 262 252 244 238 235 231 229 226 222 220 218 216 219 218 215 220 226 224 222 222 225 227 227 226 227 228 229 229 230 231 231 231 233 235 236 238 241 244 247 250 252 253 253 252 252
298 298 296 293 290 289 291 296 300 302 304 308 312 315 321 325 325 323 320 311 300 293 286 278 274 275 274 274 274 269 260 250 242 237 231 225 222 221 223 224 220 216 213 211 214 222 222 218 218 221 224 225 225 227 229 230 230 231 231 231 231 231 234 236 238 240 244 249 252 253 253 252 251 250
302 303 303 300 298 297 297 297 297 297 301 309 313 317 323 325 325 325 324 318 311 305 296 285 279 278 275 271 270 271 265 257 249 242 233 222 218 221 226 227 224 218 214 210 210 219 220 214 215 221 223 223 225 227 229 230 231 232 231 231 232 232 234 237 239 241 244 249 251 253 252 250 248 248
303 311 311 300 296 296 297 299 298 296 299 308 314 319 324 325 325 325 323 317 313 309 302 294 286 281 276 270 268 267 263 257 251 248 244 231 221 223 229 230 224 218 215 211 207 219 223 214 215 223 223 222 225 227 228 230 231 233 233 232 232 234 236 238 239 241 243 247 250 251 249 246 244 243
298 312 315 306 298 295 299 306 302 295 299 310 315 319 323 324 325 325 323 316 312 310 306 299 291 283 275 267 262 259 257 255 253 251 248 240 226 222 228 233 225 215 212 211 210 219 225 214 213 222 223 221 224 226 227 228 229 231 232 232 233 234 236 238 239 240 243 247 251 250 247 242 239 238
299 313 317 312 303 299 307 315 308 298 304 314 317 320 322 322 324 325 323 319 316 316 314 308 300 290 277 265 258 254 251 249 251 252 246 234 223 214 210 223 222 212 208 208 207 213 223 213 210 218 220 218 222 226 227 228 229 230 231 233 234 235 236 237 238 240 244 249 252 248 241 237 234 234
300 311 315 313 308 308 315 318 310 305 311 316 318 321 322 320 321 324 323 322 322 323 323 319 314 303 284 264 253 250 247 243 242 245 243 230 220 213 211 217 214 208 211 210 205 208 220 216 210 213 216 217 223 226 226 227 229 230 231 232 233 233 234 236 238 241 247 251 250 242 234 231 230 231
298 305 314 320 317 315 316 314 311 312 316 317 318 320 321 318 318 323 325 325 325 326 327 327 323 315 293 264 250 246 244 239 235 234 234 228 219 213 215 217 210 204 215 212 205 205 215 216 211 207 204 211 225 226 227 227 227 229 230 228 228 228 230 233 236 242 249 250 242 232 227 228 228 227
295 298 311 322 321 315 314 314 316 320 321 319 317 321 324 320 319 324 328 330 330 330 331 331 329 325 305 264 249 246 243 236 231 228 227 223 217 214 216 217 212 210 216 212 208 209 212 214 212 208 205 207 215 220 223 224 223 226 227 225 224 225 225 228 234 241 246 242 232 226 226 227 224 221
292 297 309 321 320 316 315 317 322 328 330 325 323 326 326 323 323 327 331 334 335 335 336 336 336 341 336 287 246 237 235 229 223 222 222 219 216 216 218 218 214 214 218 214 209 209 209 210 212 209 208 214 213 201 209 216 218 220 223 223 223 223 222 225 232 238 238 232 226 224 224 222 217 215
293 298 308 317 316 315 317 321 329 338 337 335 334 330 325 323 326 331 336 338 338 338 339 340 342 351 355 342 281 223 215 213 213 215 217 217 216 216 217 219 217 217 220 219 216 216 214 212 213 208 202 209 212 194 183 196 210 214 218 221 223 223 223 225 229 233 232 228 224 221 218 215 212 212
296 300 307 314 315 316 318 322 333 341 339 339 337 331 328 329 333 338 343 345 343 341 341 343 347 354 357 353 343 265 208 201 203 209 211 213 215 218 221 224 225 226 226 225 223 223 221 219 217 213 206 203 201 190 182 185 196 203 207 213 217 221 224 225 227 230 229 224 220 215 213 211 209 210
299 300 309 316 319 319 319 323 333 339 338 340 341 338 338 340 342 348 351 349 346 344 343 344 349 354 356 355 356 353 246 201 201 206 210 212 216 220 224 226 227 228 227 227 230 230 229 228 222 215 210 204 196 191 190 185 184 190 194 199 205 213 220 221 220 222 222 218 214 211 209 209 207 208
305 304 313 320 322 323 325 330 336 335 337 344 351 355 356 356 358 1 358 351 348 348 346 344 347 353 356 356 2 11 12 226 210 207 210 214 216 220 225 226 226 226 225 228 235 235 232 232 227 220 219 214 209 203 188 181 187 189 189 189 191 203 213 212 207 210 212 211 213 212 209 209 207 206
316 317 323 328 331 334 338 343 346 342 342 351 1 6 8 10 10 7 360 353 351 351 348 346 348 354 357 1 11 22 25 14 317 221 215 217 216 216 220 222 224 226 226 228 231 225 221 223 221 218 219 218 215 204 180 175 186 193 197 200 195 195 204 203 200 204 205 203 208 213 213 212 212 209
325 327 330 339 352 359 359 357 357 351 346 352 2 7 10 13 11 8 4 1 360 357 350 348 353 358 2 8 16 22 24 21 14 333 226 221 219 215 215 218 222 224 223 223 224 219 216 218 217 219 223 225 224 215 195 189 191 188 193 203 203 197 196 196 196 200 200 196 200 210 212 212 213 214
336 335 335 353 11 12 5 0 359 356 351 352 358 3 6 9 10 11 11 9 5 1 355 353 359 3 4 10 16 17 20 22 21 21 28 211 219 218 214 215 221 224 221 221 225 228 230 234 236 235 236 235 230 223 211 204 205 199 192 199 206 204 196 191 191 193 192 191 194 200 205 209 210 213
347 352 357 15 20 11 5 4 0 357 354 353 357 360 2 5 9 11 10 6 1 359 358 358 2 3 4 8 13 14 18 21 20 24 32 41 55 122 195 185 183 240 227 218 222 229 232 234 232 225 225 228 226 219 206 199 207 210 201 198 203 203 193 189 188 188 186 185 187 192 199 206 207 207
355 8 15 23 22 14 11 10 4 358 355 354 355 357 358 2 5 7 6 4 360 359 1 3 4 4 3 6 10 13 19 20 19 23 29 37 46 51 52 53 46 28 339 170 176 206 211 205 190 179 188 194 192 197 198 199 206 209 200 197 200 195 187 187 187 186 186 186 184 186 192 197 200 205
14 19 21 22 18 15 17 14 6 0 357 354 354 354 354 359 2 2 4 4 2 1 3 5 7 7 5 6 8 13 19 19 17 22 28 32 39 44 46 49 45 33 32 50 61 100 190 186 163 140 141 152 144 123 120 171 192 195 193 198 202 192 183 184 185 185 186 186 183 182 185 190 195 203
29 24 24 23 16 12 14 12 6 1 358 355 354 352 351 354 358 359 2 3 2 4 5 5 7 9 8 8 10 12 16 17 16 20 25 28 30 34 40 44 43 37 34 36 41 50 71 160 166 158 156 152 141 134 72 65 105 174 190 198 199 189 182 183 185 184 183 184 185 182 181 186 191 194
35 27 26 23 15 13 14 10 6 4 359 355 354 355 353 353 354 356 360 3 6 9 9 7 9 11 11 12 13 13 13 14 16 18 23 25 26 28 34 37 37 37 37 35 38 47 50 52 73 125 178 176 146 148 111 60 55 76 188 197 192 185 182 182 183 186 188 189 190 188 183 179 181 184
43 34 29 23 17 16 16 11 8 6 2 359 358 357 356 355 356 358 1 4 7 9 10 10 11 11 12 13 15 15 14 12 13 15 19 23 24 25 29 34 33 34 37 36 37 42 46 43 40 39 43 110 129 112 105 73 49 43 49 197 193 186 185 183 181 185 190 192 192 191 184 178 175 177
48 41 34 26 19 18 18 15 11 6 3 2 1 358 354 353 355 359 2 3 5 6 9 11 11 10 11 12 13 16 18 15 12 12 14 17 19 19 25 32 32 32 36 36 34 37 40 38 33 30 34 54 87 93 92 89 65 53 54 75 161 187 192 188 183 181 184 186 180 169 164 164 166 170
48 42 34 25 18 15 13 10 8 4 3 2 359 358 357 355 356 359 0 2 4 5 6 8 10 9 9 10 11 14 16 16 14 13 14 16 16 17 25 33 34 33 34 34 32 32 33 33 31 31 38 58 84 88 83 78 64 53 52 57 58 56 177 184 179 177 179 180 172 158 149 147 148 155
43 38 29 20 13 8 3 0 1 2 2 0 359 359 360 360 360 0 0 3 6 7 6 6 7 7 7 7 9 11 14 14 15 15 15 15 16 18 25 32 35 34 33 32 32 31 30 32 42 51 57 66 75 75 70 64 55 47 47 53 57 55 57 100 139 147 156 168 167 160 152 147 142 143
36 38 32 22 15 11 5 1 1 2 1 1 1 1 360 0 1 1 1 4 7 7 6 7 7 6 6 7 7 9 12 13 14 14 15 15 16 19 23 25 28 33 35 34 35 36 36 40 50 56 57 59 62 63 60 53 56 56 52 53 58 62 63 69 80 82 75 85 114 129 141 150 149 144
36 40 37 26 19 17 12 6 5 5 3 1 3 3 2 1 1 1 2 4 5 4 4 7 8 7 5 5 6 8 11 13 13 14 14 15 16 19 20 20 23 28 32 34 38 41 40 42 46 49 50 52 54 55 57 56 55 58 59 57 59 64 66 67 72 78 78 72 67 67 82 111 125 129
36 36 34 28 22 19 14 9 8 6 3 0 2 7 7 3 360 1 2 3 4 4 3 5 8 7 6 5 5 6 9 12 14 16 16 16 19 21 21 21 23 26 25 26 31 34 33 36 43 46 47 51 53 53 54 55 53 55 61 65 65 67 68 69 73 78 79 77 73 69 71 82 89 93
33 30 27 30 29 21 14 12 10 6 4 4 5 7 9 6 1 360 360 1 3 2 1 4 7 7 7 7 6 5 7 10 14 18 18 17 20 23 23 22 24 25 23 21 22 23 24 29 38 41 42 47 56 61 61 61 60 60 64 66 67 67 67 68 74 78 76 75 76 75 74 79 85 86